This is the latest recevied weather packets stored in our database for station/object N4MGC. If no packets are shown the sender has not sent any weather packets the latest 10 day(s).
| Time | Temp. | Humidity | Pressure | Rain* | Wind** | Luminosity | Snow |
|---|---|---|---|---|---|---|---|
| 1777395670 | 20° C | 99% | 1018.8 hPa | 4.83 mm | - | 61 W/m² | - |
| 1777395366 | 20° C | 99% | 1019.3 hPa | 6.1 mm | - | 52 W/m² | - |
| 1777395064 | 20° C | 99% | 1020 hPa | 6.1 mm | - | 24 W/m² | - |
| 1777394761 | 20° C | 99% | 1019.9 hPa | 4.83 mm | - | 18 W/m² | - |
| 1777394456 | 20° C | 99% | 1020.2 hPa | 3.05 mm | - | 16 W/m² | - |
| 1777394153 | 20° C | 99% | 1020 hPa | 1.27 mm | - | 12 W/m² | - |
| 1777393849 | 20° C | 99% | 1020.2 hPa | 1.78 mm | - | 19 W/m² | - |
| 1777393548 | 20° C | 99% | 1020 hPa | 1.78 mm | - | 23 W/m² | - |
| 1777393244 | 20.56° C | 99% | 1020.2 hPa | 0 mm | - | 35 W/m² | - |
| 1777392941 | 20.56° C | 99% | 1019.6 hPa | 0 mm | - | 41 W/m² | - |
| 1777392636 | 20.56° C | 99% | 1020 hPa | 0 mm | - | 41 W/m² | - |
| 1777392333 | 20.56° C | 99% | 1019.8 hPa | 0 mm | - | 91 W/m² | - |
| 1777392032 | 20.56° C | 99% | 1019.5 hPa | 0 mm | - | 93 W/m² | - |
| 1777391728 | 20.56° C | 99% | 1019.5 hPa | 0 mm | - | 130 W/m² | - |
| 1777391425 | 20.56° C | 99% | 1019.8 hPa | 0 mm | - | 139 W/m² | - |
| 1777391121 | 21.11° C | 99% | 1019.5 hPa | 0 mm | - | 340 W/m² | - |
| 1777390817 | 20.56° C | 99% | 1019.7 hPa | 0 mm | - | 302 W/m² | - |
| 1777390515 | 20.56° C | 99% | 1019.8 hPa | 0 mm | - | 301 W/m² | - |
| 1777390210 | 20.56° C | 99% | 1019.7 hPa | 0 mm | - | 243 W/m² | - |
| 1777389907 | 20° C | 99% | 1019.2 hPa | 1.27 mm | - | 217 W/m² | - |
| 1777389604 | 20° C | 99% | 1019 hPa | 4.32 mm | - | 139 W/m² | - |
| 1777389300 | 20° C | 99% | 1018.7 hPa | 6.6 mm | - | 54 W/m² | - |
| 1777388998 | 20° C | 99% | 1019 hPa | 6.6 mm | - | 32 W/m² | - |
| 1777388695 | 20° C | 99% | 1020.2 hPa | 4.32 mm | - | 21 W/m² | - |
| 1777388391 | 20° C | 99% | 1020.6 hPa | 3.05 mm | - | 17 W/m² | - |
* Rain latest hour (hover to see other rain measurements)
** Current wind speed in m/s (hover to see current wind gust speed)